User: anonymous   Login
Location: ???????
(55.4362°N, 38.1183°E)
Time: 11:41:32
(UTC+00:00)
Language:

SL-16 R/B - Orbit

View from above orbital plane
View from above orbital plane
View from above satellite
View from above satellite

Ground track
Ground track

The orbit data is extracted from the following two-line orbital elements,

1 31793U 07029B   22333.78838110  .00000441  00000-0  25502-3 0  9996
2 31793  70.9742 165.5270 0002132 280.6780  90.4608 14.14492950796243
Epoch (UTC): 29 November 2022 18:55:16
Eccentricity: 0.0002132
inclination: 70.9742°
perigee height: 842 km
apogee height: 845 km
right ascension of ascending node: 165.5270°
argument of perigee: 280.6780°
revolutions per day: 14.14492950
mean anomaly at epoch: 90.4608°
orbit number at epoch: 79624

The dashed part of the orbit path shows where the satellite is in the earth's shadow,  

DLR